User: anonymous   Login
Location: Castle Hill Houses
(40.8186°N, 73.8497°W)
Time: 15:59:30
(UTC+00:00)
Language:

Cosmos 2360 Rocket - Orbit

View from above orbital plane
View from above orbital plane
View from above satellite
View from above satellite

Ground track
Ground track

The orbit data is extracted from the following two-line orbital elements,

1 25407U 98045B   20100.17082260  .00000167  00000-0  10906-3 0  9996
2 25407  71.0131  43.2071 0005599  79.2028 280.9725 14.15797071121544
Epoch (UTC): 09 April 2020 04:05:59
Eccentricity: 0.0005599
inclination: 71.0131°
perigee height: 835 km
apogee height: 843 km
right ascension of ascending node: 43.2071°
argument of perigee: 79.2028°
revolutions per day: 14.15797071
mean anomaly at epoch: 280.9725°
orbit number at epoch: 12154

The dashed part of the orbit path shows where the satellite is in the earth's shadow,  

DLR